Voltar ao catálogo

FENGYUN 1C DEB

AtivoPO
NORAD 33679·DEBRIS·🇨🇳 China

Lançado May 10, 1999 de Taiyuan Satellite Launch Center

Loading…

Próximas Passagens (próximas 24 horas)

TLE

AtualizadoSource: Space-Track

Época: Sep 14, 2026, 14:14 UTC

1 33679U 99025DFQ 26257.59316686  .00032738  00000-0  13360-2 0  9997
2 33679  99.3464  29.8594 0109959 118.1113 243.1282 15.18891750982894

Acompanhe FENGYUN 1C DEB em tempo real com AllMySat

Download on the App Store